Paya Lebar Air Base
WSAP : now visible

Airfield :











YOU CAN JOIN US ON...

 
LOGIN :

Register | Disclaimer

   EN    FR    IT 

 









Legend :    VFR   Marginal VFR   IFR   Intensive IFR   Very Intensive IFR
Visi :
Ceiling :
>= 8 km
>= 3000ft
5 to 8 km
1000 to 3000 ft
1500m to 5 km
500 to 1000 ft
800 to 1500m
200 to 500 ft
< 800m
< 200 ft
Symbols :   Thunderstorms  Fog  Heavy snow  Heavy precipitations  Wind > 20 kt






- Airport Elevation : 65 ft
- IATA code : QPG


WSAP - Paya Lebar Air Base

CURRENT METAR :
  • 240600Z 12007KT 9999 FEW018 FEW020TCU BKN300 32/24 Q1009

EXPIRED METARs :
  • 240500Z 11005KT 9999 FEW018 FEW020TCU BKN300 31/24 Q1009 RETS
  • 240430Z 10006KT 9999 VCSH FEW017CB FEW018TCU BKN300 31/25 Q1010 RETS
  • 240405Z 13008KT 9999 VCTS FEW017CB SCT018TCU 30/25 Q1010
  • 240300Z 15010KT 9999 FEW018TCU BKN300 31/24 Q1011
  • 240200Z 14007KT 9999 FEW018TCU BKN300 31/26 Q1010

TAF TAF WSAP
Valid from the 24 at 06:00 until the 25 at 12:00 UTC


240500Z 2406/2512 16007KT 9999 FEW015 SCT020
TEMPO 2406/2407 3000 TSRA FEW012CB BKN015
WSJC FIR / Asia



MET'MAP, your aeronautical weather chart ! - Copyright ORBIFLY December 2007 - Disclaimer

ORBIFLY MET'MAP TEAM :

Programming & Development : Alexandra Zaïnal
Original concept : Baudouin d'Aumeries
Technical & hardware support : Manuel Goepfert
Assistance : Marc-Olivier Méhu




SOURCES & CREDITS :

   NOAA       Earth
Advisory